DW7371 Weather Reports


Display with metric or nautical units.
time (UTC)temp
F
wind
direction
speed
MPH
gust
MPH
rain 1hr
in
rain 24hr
in
rain mn
in
humidity
%
barometer
mb
20260506231409 56 189 8.0 13.0 0.00 0.00 0.00 82 1017.5
20260506230417 56 203 6.0 12.0 0.00 0.00 0.00 82 1017.5
20260506225428 56 173 4.0 9.0 0.00 0.00 0.00 82 1017.5
20260506224424 56 142 7.0 13.0 0.00 0.00 0.00 80 1017.6
20260506223422 56 199 8.0 13.0 0.00 0.00 0.00 81 1017.7
20260506222354 56 212 9.0 16.0 0.00 0.00 0.00 81 1017.7
20260506221351 56 221 11.0 16.0 0.00 0.00 0.00 81 1017.8
20260506220358 56 199 5.0 14.0 0.00 0.00 0.00 80 1017.8
20260506215400 56 176 6.0 14.0 0.00 0.00 0.00 79 1017.7
20260506214344 57 194 8.0 13.0 0.00 0.00 0.00 79 1017.7
20260506212244 56 199 10.0 16.0 0.00 0.00 0.00 79 1017.8
20260506211305 56 209 10.0 15.0 0.00 0.00 0.00 79 1017.8
20260506204114 56 207 10.0 15.0 0.00 0.00 0.00 80 1017.9
20260506203105 56 226 10.0 16.0 0.00 0.00 0.00 79 1017.8
20260506202046 56 229 10.0 16.0 0.00 0.00 0.00 79 1017.7
20260506201052 57 205 8.0 13.0 0.00 0.00 0.00 80 1017.7
20260506200108 56 220 8.0 13.0 0.00 0.00 0.00 78 1017.7
20260506195037 56 211 8.0 13.0 0.00 0.00 0.00 79 1017.7
20260506194028 56 212 8.0 15.0 0.00 0.00 0.00 78 1017.8
20260506193024 55 230 9.0 15.0 0.00 0.00 0.00 80 1017.7
20260506192004 56 227 8.0 13.0 0.00 0.00 0.00 78 1017.7
20260506190956 56 213 8.0 14.0 0.00 0.00 0.00 81 1017.5
20260506185923 55 201 8.0 15.0 0.00 0.00 0.00 81 1017.4
20260506184853 55 198 8.0 16.0 0.00 0.00 0.00 82 1017.5
20260506182753 54 188 7.0 13.0 0.00 0.00 0.00 82 1017.6
20260506180635 53 210 7.0 13.0 0.00 0.00 0.00 82 1017.4
20260506175634 53 230 7.0 15.0 0.00 0.00 0.00 83 1017.4
20260506174623 53 244 9.0 15.0 0.00 0.00 0.00 84 1017.5
20260506173619 53 205 7.0 12.0 0.00 0.00 0.00 83 1017.4
20260506172600 53 214 7.0 12.0 0.00 0.00 0.00 85 1017.1
20260506171536 53 247 6.0 11.0 0.00 0.00 0.00 83 1017.1
20260506170528 53 217 6.0 9.0 0.00 0.00 0.00 84 1017.1
20260506165455 53 185 6.0 9.0 0.00 0.00 0.00 84 1016.9
20260506164432 53 219 5.0 9.0 0.00 0.00 0.00 85 1016.9
20260506163415 52 205 5.0 12.0 0.00 0.00 0.00 84 1017.1
20260506162427 52 208 6.0 12.0 0.00 0.00 0.00 85 1017.0
20260506161445 52 222 7.0 11.0 0.00 0.00 0.00 85 1017.0
20260506160506 52 219 6.0 13.0 0.00 0.00 0.00 85 1017.1
20260506155438 52 219 6.0 13.0 0.00 0.00 0.00 86 1017.0
20260506154433 52 242 6.0 10.0 0.00 0.00 0.00 86 1017.1
20260506153433 52 230 6.0 11.0 0.00 0.00 0.00 86 1017.1
20260506152425 52 214 8.0 12.0 0.00 0.00 0.00 85 1017.1
20260506151441 52 217 7.0 12.0 0.00 0.00 0.00 85 1016.9
20260506144302 52 252 6.0 10.0 0.00 0.00 0.00 85 1016.5
20260506143239 52 238 5.0 10.0 0.00 0.00 0.00 85 1016.2
20260506142305 52 235 5.0 13.0 0.00 0.00 0.00 85 1016.3
20260506141257 52 230 7.0 13.0 0.00 0.00 0.00 86 1016.1
20260506140250 52 238 7.0 11.0 0.00 0.00 0.00 86 1016.3
20260506134034 52 227 6.0 11.0 0.00 0.00 0.00 86 1016.1
20260506133029 52 232 4.0 12.0 0.00 0.00 0.00 86 1016.1
20260506132034 52 190 7.0 13.0 0.00 0.00 0.00 86 1015.9
20260506125926 52 212 8.0 12.0 0.00 0.00 0.00 85 1015.7
20260506124943 52 219 8.0 16.0 0.00 0.00 0.00 85 1015.6
20260506123918 52 216 9.0 16.0 0.00 0.00 0.00 85 1015.7
20260506122903 52 211 7.0 14.0 0.00 0.00 0.00 85 1015.6
20260506120709 52 209 10.0 16.0 0.00 0.00 0.00 85 1015.8
20260506115732 52 236 9.0 14.0 0.00 0.00 0.00 85 1015.5
20260506114724 52 203 10.0 15.0 0.00 0.00 0.00 85 1015.3
20260506113651 52 215 10.0 16.0 0.00 0.00 0.00 85 1015.2
20260506112638 52 196 9.0 14.0 0.00 0.00 0.00 85 1015.1
20260506111651 52 207 9.0 17.0 0.00 0.00 0.00 85 1015.2
20260506110714 52 209 10.0 17.0 0.00 0.00 0.00 85 1015.2
20260506104608 52 208 9.0 16.0 0.00 0.00 0.00 86 1015.0
20260506103550 52 215 11.0 19.0 0.00 0.00 0.00 86 1014.8
20260506102521 52 224 12.0 19.0 0.00 0.00 0.00 87 1014.7
20260506101544 51 227 12.0 17.0 0.00 0.00 0.00 88 1014.6
20260506100525 51 213 13.0 18.0 0.00 0.00 0.00 87 1014.6
20260506095527 51 210 12.0 18.0 0.00 0.00 0.00 88 1014.5
20260506093336 51 220 10.0 15.0 0.00 0.00 0.00 88 1014.4
20260506092301 51 196 9.0 18.0 0.00 0.00 0.00 88 1014.3
20260506090131 52 222 9.0 14.0 0.00 0.00 0.00 88 1014.1
20260506085056 52 199 9.0 14.0 0.00 0.00 0.00 87 1014.1
20260506084116 52 196 8.0 13.0 0.00 0.00 0.00 87 1014.1
20260506083131 52 222 9.0 16.0 0.00 0.00 0.00 86 1014.0
20260506082105 52 227 9.0 16.0 0.00 0.00 0.00 87 1014.0
20260506081031 52 214 9.0 15.0 0.00 0.00 0.00 87 1014.0
20260506073030 53 227 8.0 14.0 0.00 0.00 0.00 87 1013.5
20260506070855 52 225 7.0 13.0 0.00 0.00 0.00 88 1013.6
20260506061657 53 202 6.0 11.0 0.00 0.00 0.00 87 1013.4
20260506060625 53 199 5.0 11.0 0.00 0.00 0.00 87 1013.3
20260506051343 54 231 6.0 13.0 0.00 0.00 0.00 86 1013.2
20260506050315 54 224 7.0 13.0 0.00 0.00 0.00 86 1013.0
20260506044332 54 203 6.0 12.0 0.00 0.00 0.00 85 1012.8
20260506041009 55 201 7.0 12.0 0.00 0.00 0.00 84 1012.5
20260506035958 55 186 7.0 11.0 0.00 0.00 0.00 84 1012.4
20260506034949 55 191 8.0 13.0 0.00 0.00 0.00 83 1012.3
20260506033916 55 193 7.0 11.0 0.00 0.00 0.00 83 1012.1
20260506032930 56 196 7.0 13.0 0.00 0.00 0.00 82 1012.1
20260506025725 57 184 10.0 16.0 0.00 0.00 0.00 80 1012.0
20260506024653 58 164 10.0 16.0 0.00 0.00 0.00 79 1012.0
20260506022527 58 157 5.0 12.0 0.00 0.00 0.00 78 1012.0
20260506021528 59 196 5.0 11.0 0.00 0.00 0.00 77 1012.1
20260506020524 59 197 4.0 10.0 0.00 0.00 0.00 76 1012.1
20260506015527 60 138 5.0 14.0 0.00 0.00 0.00 77 1012.1
20260506014540 60 213 4.0 14.0 0.00 0.00 0.00 75 1012.2
20260506013602 60 161 4.0 11.0 0.00 0.00 0.00 76 1012.1
20260506012613 60 147 5.0 9.0 0.00 0.00 0.00 76 1012.3
20260506011614 61 151 5.0 14.0 0.00 0.00 0.00 75 1012.2
20260506010554 60 180 9.0 15.0 0.00 0.00 0.00 76 1012.3
20260506005535 61 175 10.0 15.0 0.00 0.00 0.00 76 1012.3
20260506004502 60 203 9.0 17.0 0.00 0.00 0.00 76 1012.3
20260506003430 60 209 10.0 17.0 0.00 0.00 0.00 76 1012.4
20260506001257 60 181 9.0 16.0 0.00 0.00 0.00 77 1012.4
20260506000234 59 221 11.0 15.0 0.00 0.00 0.00 79 1012.6
20260505235213 59 195 10.0 14.0 0.00 0.00 0.00 78 1012.8
20260505234208 60 200 11.0 17.0 0.00 0.00 0.00 78 1012.8
20260505233136 59 236 11.0 18.0 0.00 0.00 0.00 77 1012.9
20260505232144 60 197 11.0 18.0 0.00 0.00 0.00 76 1013.1